Portada
METAR-TAF:

METAR-TAF

Aeroports :

Santa Ana del Yacuma, Bolívia

latitud: 13-46S, longitud: 065-26W, altitud: 144 m

Observació

L'informe es va fer fa 8 hores i 22 minuts, a les 23:00 UTC
Vent calma
Temperatura 31°C
Humitat 55%
Pressió 1007 hPa
Visibilitat: 6000 m
Escasses núvols a una alçada de 2000 ft
Cel ennuvolat a una alçada de 20000 ft

METAR: SLSA 202300Z 00000KT 6000 FEW020 BKN200 31/21 Q1007

Hora: 03:22 (07:22 UTC)


TAF: manca

Observacions i pronòstics meteorològics de més de 4000 aeroports (METAR i TAF).

Les estacions disponibles són els punts grocs i vermells al mapa.

Posi el ratolí al punt desitjat per veure el nom de l'estació.

Feu clic per veure les observacions i els pronòstics meteorològics.

Per canviar el mapa: feu clic els botons verds amb una creu de color negre per apropar; al botó verd amb un guió per allunyar la imatge; o en les fletxes verdes per a mapes adjacents.


METAR-TAF: